Theta_e
314 312 315 315 320 320 322 329 328 332 329 324 325 324 322 324 327 328 328 326 327 326 327 332 332 330 331 333 339 342 338 344 346 344 344 338 335 337 337 333 329 327 329 331 330 328 326 329 333 336 336 335 336 335 333 330 329 331 333 333 332 331 332 332 332 333 333 332 331 331 332 332 332 332 332 332 332 332 331 331 331 331 332 333 333 333 333 332 332 332 332 332 332 332 331 330 331
313 313 316 317 322 316 323 332 332 337 335 325 325 325 320 322 326 330 332 331 328 328 332 337 338 337 337 333 334 337 333 336 336 335 337 335 338 338 336 332 328 327 329 329 326 324 328 331 333 335 336 335 335 335 334 332 331 331 332 333 333 332 331 332 332 332 333 332 331 331 331 331 332 332 332 332 332 332 331 331 331 331 331 332 333 332 332 332 332 333 332 331 331 331 331 330 331
312 314 317 319 321 319 328 331 329 333 328 324 331 329 320 324 331 333 336 331 326 330 333 334 339 337 335 335 331 333 332 332 333 334 336 338 338 337 335 331 328 327 326 326 323 324 326 329 333 335 336 335 335 335 334 334 333 332 333 334 333 332 331 332 332 333 333 333 332 331 331 331 331 331 331 332 331 332 332 331 331 332 332 332 332 332 332 333 333 332 331 331 331 330 331 330 330
313 317 317 319 321 327 339 331 334 333 321 325 327 326 325 329 334 332 332 328 326 331 331 330 338 330 329 340 334 331 334 334 335 336 338 337 338 337 334 330 329 327 325 324 322 322 323 328 333 334 335 334 335 334 334 334 332 332 334 332 331 332 331 331 331 333 333 333 332 332 331 330 331 330 330 330 331 331 332 332 331 331 332 332 332 332 332 332 332 331 331 331 330 329 330 330 330
315 320 317 320 323 329 335 326 332 329 322 329 321 323 332 332 332 329 326 325 326 327 326 331 338 329 330 339 334 333 335 336 336 336 339 338 337 336 333 331 328 327 326 322 321 321 322 329 332 333 334 334 335 334 334 334 331 332 332 331 332 332 332 331 330 332 333 332 332 333 332 330 330 330 329 328 330 331 331 331 331 332 332 332 332 332 332 332 332 332 331 330 330 329 329 329 329
316 320 318 319 318 321 327 320 324 327 329 333 320 325 334 329 327 328 325 323 325 324 324 332 337 336 337 337 332 333 333 337 338 336 338 338 338 336 333 330 328 329 327 322 321 320 320 327 331 333 334 334 334 334 334 333 333 333 333 332 331 330 331 331 330 331 333 332 332 334 333 332 331 330 330 329 330 330 330 329 329 332 332 332 332 332 332 332 331 331 330 329 329 329 328 327 327
316 318 322 322 320 322 330 324 328 336 329 324 321 327 331 326 324 327 326 322 324 323 326 333 336 339 339 334 333 333 332 335 336 336 337 338 338 335 332 329 330 330 326 323 321 319 321 326 331 333 333 334 334 334 334 334 335 335 333 332 331 329 328 330 330 330 332 332 332 333 333 333 331 329 329 328 328 328 330 330 330 331 332 331 331 331 331 331 330 330 329 329 329 329 328 326 326
318 321 326 329 326 328 333 326 332 337 322 317 320 325 328 325 324 327 328 326 325 325 333 337 334 338 335 331 337 335 331 334 335 337 336 338 338 335 331 329 331 330 326 323 319 318 322 327 331 333 333 332 332 334 334 334 335 335 334 333 333 329 325 328 330 330 330 331 331 332 333 332 331 329 328 327 328 328 329 330 330 331 331 331 331 331 331 330 330 329 329 328 328 328 326 325 325
318 320 325 328 325 328 333 328 326 328 324 321 319 324 326 323 324 326 328 327 325 331 338 336 330 329 333 337 341 333 331 335 336 337 336 338 338 334 330 329 331 330 328 323 319 318 321 326 328 330 331 329 330 334 335 334 335 334 334 334 333 329 324 326 329 331 329 331 331 330 332 331 330 329 328 328 330 329 329 328 328 330 331 330 330 330 330 330 329 329 329 328 327 327 326 325 325
319 320 324 327 327 323 325 328 328 324 323 322 319 324 325 323 325 324 328 325 326 337 337 332 333 329 336 344 340 332 333 336 336 338 337 339 338 333 330 329 330 329 329 325 319 318 319 323 324 325 327 327 330 334 334 334 335 334 334 334 333 330 326 323 327 331 329 330 330 330 331 331 331 328 328 330 329 329 329 329 327 328 330 330 330 330 329 329 328 328 329 328 327 326 326 325 324
324 328 330 327 327 323 320 328 336 335 325 321 322 323 324 324 325 323 325 324 324 332 330 329 338 340 342 343 336 332 333 336 338 338 337 339 337 333 330 330 330 328 328 325 320 318 319 321 322 321 323 324 327 332 334 333 334 334 334 335 334 331 328 325 325 329 329 329 329 331 331 330 330 328 328 329 329 329 329 329 328 327 329 330 329 329 328 328 328 327 327 327 326 326 325 325 324
321 333 340 331 327 326 325 328 337 342 332 325 325 322 323 323 323 323 324 325 324 328 330 328 334 344 349 344 336 331 332 337 337 337 338 339 337 333 330 330 330 328 327 326 323 320 320 321 320 319 320 321 323 329 333 333 334 333 334 334 334 332 329 325 324 327 329 327 328 330 330 330 329 327 329 329 328 328 328 328 328 328 328 329 329 328 328 327 327 326 326 326 326 326 325 324 324
328 333 336 325 323 324 325 327 330 333 329 328 325 319 321 322 323 325 326 325 324 329 328 324 332 344 351 343 335 331 332 337 336 337 338 338 338 333 331 330 330 330 328 327 324 322 322 321 319 318 319 319 321 327 332 333 333 332 334 334 334 333 330 324 323 327 328 326 327 329 328 329 328 327 328 328 327 327 327 327 327 328 327 328 329 328 327 327 326 326 326 326 325 325 325 324 323
330 336 332 321 322 326 327 326 324 323 324 328 322 317 320 321 323 325 326 324 325 328 319 320 331 339 341 336 338 338 334 336 336 337 338 338 337 333 331 330 330 331 330 327 324 324 324 321 320 319 319 319 321 326 331 331 331 332 333 334 333 332 327 322 321 325 326 323 326 329 327 327 326 326 327 326 326 326 326 326 326 327 327 327 327 327 327 326 326 326 326 325 325 325 324 324 323
322 338 338 328 324 324 325 322 322 324 325 325 318 318 321 317 320 324 324 327 326 320 316 321 328 326 330 335 342 340 334 336 336 336 338 338 336 334 331 330 330 331 331 328 326 326 325 322 320 319 319 319 320 324 328 328 329 330 332 332 330 327 323 320 318 321 323 322 325 328 327 326 325 325 326 324 324 324 325 325 326 326 327 327 326 326 325 325 326 326 325 325 325 324 323 323 323
325 339 334 328 324 320 321 319 322 324 324 324 315 317 323 316 317 321 318 323 323 319 326 329 323 324 330 331 332 332 333 337 336 337 337 337 335 334 332 330 331 331 331 330 328 327 326 323 321 320 320 319 319 322 324 325 325 327 328 327 324 322 321 319 318 318 320 321 324 326 325 325 325 325 324 323 323 323 322 322 324 326 326 326 326 325 324 324 325 325 325 324 324 323 323 323 323
325 331 328 327 325 322 321 320 320 321 325 324 315 315 325 320 313 315 314 321 328 328 339 336 323 327 333 330 326 328 335 337 337 337 336 336 335 334 333 332 332 332 332 331 330 328 326 326 323 321 320 319 319 320 321 322 322 323 323 322 321 320 319 319 317 316 317 320 323 324 324 323 324 325 323 322 323 321 319 320 322 324 326 325 324 323 323 324 325 325 325 324 323 323 323 323 323
322 325 326 327 327 326 325 323 319 319 321 319 315 316 323 323 315 313 316 326 333 331 337 337 331 330 330 329 327 330 335 336 337 337 336 336 335 335 334 334 334 333 332 332 331 329 327 326 325 323 321 320 320 320 320 320 321 322 320 319 319 318 318 317 317 316 315 317 320 322 322 322 322 323 323 323 322 321 319 319 320 322 323 323 323 323 323 324 324 325 325 324 323 323 323 323 323
327 327 325 333 332 327 324 322 318 316 317 317 317 317 318 321 317 315 318 326 331 329 331 336 338 334 330 329 330 333 334 336 337 336 336 336 335 336 335 336 335 334 333 332 332 331 328 325 326 325 322 321 320 320 320 319 320 320 319 318 318 318 318 317 317 316 315 314 316 318 319 320 321 322 323 323 322 322 320 318 319 318 319 321 322 323 323 324 324 324 325 324 323 323 323 323 323
326 323 326 337 330 323 324 321 317 316 316 316 317 317 316 317 316 315 321 328 330 329 328 333 340 340 335 331 330 332 334 335 336 337 337 336 336 336 336 336 335 335 334 332 331 331 330 326 324 324 323 322 320 320 320 320 320 319 319 319 318 318 317 317 317 316 315 314 313 315 316 317 318 320 321 322 322 321 320 318 318 317 317 319 322 323 323 324 324 324 325 324 324 323 323 323 323
317 317 332 336 320 317 322 319 318 317 315 315 318 317 315 315 314 316 322 328 328 327 326 328 337 344 338 331 330 332 333 334 335 337 336 336 336 336 336 336 335 336 334 333 331 331 331 328 325 324 324 323 322 321 320 320 320 320 319 319 319 318 317 318 318 317 316 315 314 314 315 315 315 317 318 319 320 320 320 319 318 317 316 318 321 322 323 323 323 324 324 324 324 324 324 324 323
314 318 332 331 316 313 316 317 315 315 314 315 318 317 315 315 313 318 324 324 323 323 323 325 332 340 337 331 330 331 332 333 334 335 336 336 336 336 336 335 336 335 335 334 331 331 331 330 328 326 325 325 324 323 321 321 320 320 320 320 319 319 318 318 318 318 317 317 317 315 314 315 315 315 315 315 316 316 318 319 319 318 316 316 318 320 321 322 322 323 323 323 323 323 323 323 323
317 322 326 323 315 313 314 315 313 314 316 317 319 316 315 315 314 317 321 320 318 316 316 323 329 331 332 330 330 332 332 332 333 334 335 336 336 336 336 335 336 335 334 334 332 331 330 330 330 327 327 326 326 325 324 323 322 321 320 321 320 320 319 318 319 319 318 318 319 317 315 316 315 315 315 314 315 315 315 316 318 318 317 316 316 317 318 319 320 320 321 321 321 321 321 321 322
316 322 326 321 314 313 314 314 313 315 317 319 318 314 315 317 316 315 317 320 317 314 313 319 326 327 329 330 330 331 331 331 332 333 334 335 336 336 336 335 335 335 334 333 333 332 330 330 330 329 328 327 327 327 326 325 324 324 322 322 321 321 320 320 319 319 319 319 320 320 318 318 317 317 317 317 317 316 315 314 314 316 317 316 316 316 316 317 317 318 320 321 320 320 320 321 321
316 320 322 317 313 314 315 315 315 315 316 315 313 313 316 316 314 314 317 319 315 318 321 325 327 328 329 331 331 331 330 331 331 332 333 334 335 335 336 335 335 334 334 333 333 334 332 329 329 330 329 328 328 328 328 327 326 326 325 324 323 322 321 321 321 320 320 319 320 321 320 320 319 319 320 320 320 318 318 317 314 313 314 315 316 317 316 316 316 317 319 320 320 321 320 321 320
317 321 321 316 315 314 313 314 314 315 314 312 313 314 314 312 311 315 317 317 320 330 335 333 332 332 332 331 331 330 330 330 331 331 332 333 334 334 335 335 335 334 333 332 333 335 333 330 329 328 328 328 328 328 328 328 328 328 327 326 325 324 323 322 322 321 321 320 320 321 322 322 321 321 321 322 323 321 320 319 317 315 313 314 316 317 317 317 317 317 318 319 320 320 320 320 320
316 322 323 318 316 314 312 314 314 315 313 312 314 314 313 310 312 317 316 316 323 340 343 332 332 335 332 331 331 329 329 330 331 331 331 331 332 333 334 334 334 334 333 332 333 335 335 332 329 327 327 327 327 328 328 328 328 328 328 328 327 326 325 324 324 323 322 322 321 321 322 323 323 323 323 324 324 324 323 320 319 318 316 316 317 318 318 318 318 318 319 319 319 319 319 318 319
314 317 319 316 316 315 313 314 314 314 313 313 313 313 314 311 313 317 314 314 319 337 346 334 333 334 330 331 331 328 328 329 331 331 330 330 331 332 333 334 333 333 333 332 333 335 335 333 331 329 327 326 327 328 327 328 328 328 329 330 329 328 327 326 326 325 324 324 323 322 323 323 324 324 325 325 325 326 325 322 320 320 319 319 319 320 320 320 320 320 320 320 320 319 319 317 316
314 314 315 315 316 315 315 314 314 313 312 314 313 313 315 313 316 315 313 318 322 334 347 337 333 332 330 331 330 328 328 328 330 329 330 331 331 332 332 333 333 333 332 332 333 334 335 334 333 332 330 329 328 328 329 329 328 328 329 331 332 331 329 329 328 327 327 326 326 325 324 323 324 324 325 325 326 326 326 324 322 321 321 321 321 321 322 322 321 321 321 320 321 320 319 317 316
315 315 314 316 315 315 314 312 313 313 313 314 313 314 319 317 316 313 316 325 329 334 344 338 332 331 330 330 330 330 327 327 329 328 330 331 331 332 332 333 332 333 332 332 333 334 335 335 333 333 332 331 330 331 331 332 332 330 330 331 332 333 332 331 330 330 329 328 328 327 326 325 324 324 325 325 326 326 325 324 324 323 323 323 323 322 322 322 322 322 321 321 321 320 320 319 318
316 314 313 315 316 318 318 314 314 313 313 313 312 314 320 318 316 313 316 325 327 329 339 337 331 330 329 330 330 330 328 326 328 328 330 330 330 331 331 332 332 333 333 333 334 334 335 335 334 333 333 333 332 333 334 334 334 334 332 332 331 333 333 333 333 332 331 330 330 329 328 326 325 324 325 325 325 326 325 324 325 325 325 325 324 324 323 323 323 323 322 322 321 320 320 321 321
316 315 317 316 315 320 321 317 316 314 312 312 311 315 318 316 316 312 311 318 323 321 327 331 331 330 329 329 329 330 329 326 327 328 329 329 330 331 331 332 332 332 333 333 334 334 334 334 334 334 333 333 333 333 334 334 334 334 334 333 333 333 333 333 333 333 332 331 331 331 330 328 326 325 324 325 325 325 325 325 325 325 325 325 325 324 324 324 323 323 323 322 321 321 322 323 323
316 317 319 319 316 317 317 315 315 315 313 312 312 315 319 315 313 310 308 315 322 320 321 324 328 329 328 328 328 329 329 327 327 327 328 329 329 330 331 331 331 332 332 333 333 333 334 334 334 334 333 333 333 333 334 334 335 334 334 334 334 333 333 333 333 333 332 332 332 332 331 329 328 327 326 325 325 326 326 325 325 326 326 326 325 325 324 324 324 324 323 323 322 321 322 323 323
316 316 318 319 316 315 314 314 315 314 312 313 313 313 318 318 312 311 311 313 319 322 321 319 321 324 325 326 327 328 328 329 327 326 327 329 329 330 330 330 331 331 331 332 332 332 333 333 334 334 334 334 333 333 333 334 335 334 334 334 334 334 334 334 333 334 333 332 332 332 332 331 330 328 327 327 327 327 326 326 326 326 326 326 326 326 325 324 324 324 324 323 322 322 323 323 324
316 316 316 316 314 314 314 314 313 312 312 313 314 313 315 317 313 313 312 312 318 321 317 315 316 320 322 322 323 325 326 328 326 325 326 327 328 329 329 330 330 330 331 331 332 332 332 333 333 333 333 333 333 333 333 334 334 334 335 334 334 335 334 334 334 334 334 334 333 332 332 332 331 330 329 329 328 328 328 327 327 326 326 326 326 326 325 324 324 324 324 323 323 323 322 323 323
316 315 314 314 314 314 314 315 313 311 312 313 314 313 314 315 314 313 312 312 316 317 314 313 313 313 316 318 319 320 323 325 324 324 325 325 327 328 328 329 329 329 330 330 330 331 331 331 332 332 333 333 333 333 333 334 334 334 334 334 334 335 335 335 335 335 335 334 334 333 333 332 332 332 331 330 329 329 329 328 328 327 326 326 326 326 325 325 324 324 324 323 323 322 322 323 322
315 314 313 314 314 314 313 315 314 311 312 314 314 313 313 315 314 313 312 311 313 315 315 314 313 310 310 312 314 316 318 319 319 320 322 324 325 326 327 328 328 329 329 329 330 330 331 331 331 331 332 332 332 332 333 333 333 333 333 333 333 334 334 334 335 335 335 335 334 334 333 333 333 332 332 331 331 330 329 329 328 327 326 325 326 326 326 325 324 324 324 324 323 322 322 322 321
314 314 314 313 314 314 313 313 313 311 312 315 315 313 313 314 313 313 311 310 311 313 314 315 315 311 308 309 311 312 312 313 314 314 315 319 322 323 325 327 328 328 328 329 329 329 330 330 330 331 331 331 332 332 332 332 333 333 332 333 333 333 333 333 333 334 334 335 335 334 334 333 333 333 332 332 331 331 330 329 328 327 327 326 325 325 326 325 324 324 324 323 323 323 322 321 321
313 314 315 315 314 314 313 312 313 311 311 317 316 313 314 313 312 311 311 311 311 311 311 313 314 312 310 309 309 310 309 310 311 311 309 312 316 319 322 324 326 328 328 328 329 329 329 329 330 330 330 330 331 331 332 332 332 332 332 332 332 332 332 332 332 332 333 334 334 335 334 334 333 332 332 332 331 331 330 330 329 328 327 327 326 325 325 325 325 325 324 324 323 322 322 321 322
313 314 315 316 314 313 313 312 312 312 311 314 314 313 314 313 312 312 311 311 311 311 311 311 312 312 313 311 310 309 309 310 310 310 308 307 310 314 317 321 324 326 327 327 328 329 329 329 329 329 329 330 330 330 331 331 331 332 332 332 332 332 332 332 332 332 332 332 333 334 334 334 333 332 331 331 331 331 331 330 330 328 327 327 327 325 325 324 325 325 324 323 323 322 322 322 322
314 314 314 316 316 314 313 312 312 313 312 311 312 314 314 314 314 313 312 310 309 310 310 310 311 311 311 312 311 311 311 311 310 310 309 305 306 310 314 317 321 323 325 326 327 328 328 328 328 329 329 329 329 330 330 330 331 331 332 332 332 332 332 332 332 331 331 331 331 332 332 333 333 333 332 331 331 330 330 331 330 327 326 326 327 326 325 324 323 323 323 323 323 322 322 322 322
314 314 313 316 318 315 314 315 313 313 315 313 314 314 317 323 320 314 313 312 310 311 311 311 310 310 309 310 311 311 311 311 310 310 309 306 304 307 310 314 318 321 323 324 325 327 327 327 328 328 329 329 329 329 330 330 330 331 331 331 331 331 331 331 331 331 331 331 331 331 331 331 332 332 332 332 331 331 331 332 331 329 326 325 325 324 324 324 324 323 322 322 323 323 322 322 322
314 314 313 313 315 314 314 316 314 316 319 315 312 312 318 325 321 315 316 314 313 312 311 311 310 308 309 309 309 309 310 310 310 310 309 306 304 305 307 311 315 318 320 321 324 325 326 327 327 327 328 329 329 329 330 330 330 330 331 331 331 331 331 331 331 331 331 331 331 331 331 331 331 331 332 332 332 332 332 332 331 330 329 327 325 325 325 325 324 324 323 322 323 324 323 322 322
315 315 316 314 312 313 315 317 316 318 319 315 314 313 315 317 315 317 319 315 315 315 313 313 311 310 310 309 309 309 309 310 311 311 310 306 303 304 306 308 312 314 316 319 322 324 325 326 326 327 327 328 329 329 330 330 330 330 330 330 331 331 331 331 331 330 330 331 331 331 331 331 330 330 330 330 331 331 332 332 331 330 330 328 327 326 326 326 325 324 324 323 323 323 323 323 322
316 314 317 316 313 314 315 316 316 317 316 315 316 313 312 316 319 321 318 314 315 315 315 315 313 312 312 310 309 308 309 309 309 311 310 307 303 303 305 307 309 311 313 317 320 322 324 325 326 327 327 328 328 329 329 330 330 330 330 330 330 331 331 331 331 331 331 331 331 331 331 330 331 330 329 329 329 330 330 331 331 330 330 329 328 327 325 326 326 324 324 324 324 323 324 324 323
314 314 318 319 320 320 316 316 316 315 314 315 318 315 313 318 321 318 313 312 314 314 316 316 313 313 313 311 310 309 308 308 309 310 308 305 304 305 305 306 307 309 312 316 319 321 323 325 326 327 327 328 328 329 329 330 330 330 330 330 330 330 331 331 331 331 331 330 330 331 330 330 330 329 329 328 328 328 328 329 330 331 330 329 328 327 324 325 326 324 323 324 325 324 324 324 324
314 317 320 319 323 323 319 322 320 313 314 315 317 317 312 316 319 314 313 317 317 315 315 315 314 313 312 313 314 311 309 307 308 308 305 302 303 304 304 305 306 307 309 313 317 320 323 324 325 326 327 328 328 329 329 330 330 330 330 331 331 330 331 331 330 330 330 330 330 330 330 330 329 328 327 327 327 327 326 327 328 329 330 329 328 327 324 323 324 324 324 325 324 324 323 323 323
314 318 318 316 322 320 318 324 318 313 316 313 314 316 313 314 316 312 313 318 317 315 315 316 315 314 315 319 322 319 315 310 307 307 306 304 304 303 303 304 305 306 307 309 314 318 321 323 324 326 327 327 328 329 329 330 330 330 330 330 330 331 330 330 331 330 330 330 330 330 330 329 329 328 327 326 326 326 326 326 326 327 329 327 327 327 325 323 324 325 325 325 323 322 322 323 322
314 316 316 314 318 317 315 320 317 316 318 312 311 314 312 313 316 314 316 316 314 313 312 315 314 313 317 324 325 323 322 320 317 313 308 307 308 304 302 304 304 305 306 307 310 314 318 322 323 324 326 327 327 328 329 329 330 330 330 330 330 330 331 330 330 331 331 330 330 330 330 329 329 328 327 327 326 325 325 325 325 326 328 326 325 326 326 326 325 324 324 324 322 322 323 322 320
312 312 313 314 316 315 314 316 317 318 318 312 310 312 314 316 316 316 317 314 313 313 311 311 311 311 314 318 317 317 320 324 326 321 315 314 311 304 302 304 305 306 306 307 308 311 315 319 322 324 325 325 327 328 328 329 329 330 330 330 330 330 330 330 330 331 331 331 330 330 330 330 329 329 328 327 327 326 325 325 326 327 327 327 326 324 325 326 325 325 324 323 323 322 321 319 318
312 313 315 314 316 318 317 316 318 320 318 312 309 313 319 322 317 314 315 314 314 314 313 313 311 309 309 310 312 314 315 320 327 326 323 319 308 303 306 307 307 308 308 308 308 309 313 316 320 322 323 325 326 327 328 328 329 329 330 330 330 330 330 330 331 330 330 331 330 330 330 330 329 329 328 327 327 326 326 326 327 326 326 327 327 325 325 326 326 325 324 322 322 320 319 318 316
313 316 316 313 318 325 321 316 319 321 319 314 312 316 322 320 315 312 311 314 316 314 315 317 315 311 309 309 311 313 313 318 328 329 329 321 306 302 308 308 308 310 309 310 309 309 311 314 317 320 322 324 324 326 327 327 328 329 329 330 330 330 330 330 330 330 330 330 330 330 330 330 329 328 328 327 327 327 327 326 327 326 326 327 326 326 326 325 324 323 322 321 320 318 317 317 315
314 314 314 312 318 327 322 313 312 314 316 316 314 316 319 317 314 313 312 313 315 314 314 317 316 313 312 313 311 311 312 317 325 329 330 324 309 306 309 309 310 311 310 311 311 310 311 312 315 318 320 322 323 325 326 326 328 328 328 329 329 330 330 329 330 330 330 330 330 330 330 329 329 328 328 327 327 327 327 326 326 325 326 326 325 324 324 323 323 322 320 319 318 317 316 315 314
314 314 314 312 314 321 322 317 313 311 314 319 317 314 316 317 315 316 315 312 313 314 314 314 314 314 314 316 313 312 313 315 319 324 325 320 310 308 312 311 312 312 312 312 311 311 311 311 312 315 317 321 322 324 325 325 327 327 327 328 328 329 329 329 329 329 330 330 329 329 329 329 329 328 328 327 327 327 326 326 326 325 324 324 323 322 321 320 320 319 318 317 316 316 315 314 313
313 316 317 315 316 317 316 317 317 314 314 319 321 316 314 316 316 315 314 314 315 313 312 311 312 315 317 318 316 315 314 316 318 321 325 323 313 310 313 313 314 314 313 313 311 310 310 310 311 312 313 317 319 321 323 324 326 327 327 328 328 329 329 329 329 329 329 329 329 329 329 328 328 327 327 327 327 326 325 325 324 323 322 322 321 320 319 318 317 317 317 315 314 314 314 313 310
312 314 313 313 317 317 316 315 316 317 316 318 321 317 313 315 318 317 315 316 316 312 312 314 315 316 316 317 319 319 317 318 320 321 326 326 313 308 313 314 314 315 314 314 313 311 310 310 310 311 311 313 315 317 320 322 324 325 326 327 327 327 328 328 328 329 329 329 328 329 328 327 327 327 327 327 326 325 324 324 323 321 320 320 319 318 317 317 316 315 315 314 313 312 312 311 308
312 313 312 311 312 315 318 315 313 318 319 319 318 315 316 320 317 315 314 315 315 314 314 316 317 316 314 313 314 315 314 315 318 320 326 324 309 305 311 314 314 316 315 314 314 312 312 311 310 310 311 312 313 316 318 320 321 322 324 325 325 326 326 327 328 328 328 328 327 327 327 326 326 326 327 326 324 324 324 323 321 320 318 318 318 317 316 315 314 312 311 311 310 309 309 308 304
313 313 313 313 313 316 317 313 314 317 317 320 318 311 317 324 315 310 313 313 311 314 313 313 319 321 319 314 310 310 313 317 319 320 324 321 308 304 308 311 312 315 315 314 315 314 313 312 311 310 310 311 313 316 319 320 321 322 323 323 324 325 326 326 327 327 326 326 326 326 325 325 326 325 325 324 324 323 323 321 319 318 317 317 318 317 315 313 310 309 309 308 308 306 304 301 297
Wind_Speed
11 10 9 7 7 5 4 5 2 3 3 2 2 0 2 2 2 2 2 1 1 1 2 2 4 6 3 2 6 6 3 4 5 4 3 2 11 22 16 16 21 19 19 16 14 13 14 17 15 11 8 11 13 13 15 15 16 16 15 13 12 13 13 13 13 14 15 15 15 16 16 17 17 17 18 18 18 18 18 18 18 18 18 18 18 18 18 19 19 19 19 19 19 19 20 21 21
12 10 8 5 7 6 1 3 3 3 5 2 3 2 3 2 2 5 6 4 3 2 2 5 6 5 5 3 4 4 2 0 4 3 1 6 16 18 14 18 20 18 19 16 15 16 17 17 15 12 9 11 12 13 14 14 14 14 14 13 13 13 13 13 13 13 14 14 15 16 16 16 17 17 17 18 18 18 18 18 18 18 18 18 18 18 19 19 19 18 18 18 19 19 20 20 20
12 9 8 4 4 6 2 4 2 1 4 1 4 3 1 1 5 6 7 6 4 4 4 4 4 4 4 4 2 2 1 0 3 2 3 12 14 14 17 20 19 18 18 17 16 16 16 17 16 13 10 11 12 13 14 13 13 13 13 12 12 13 12 12 12 13 12 13 15 16 16 16 16 17 17 18 18 18 18 18 18 18 18 18 18 19 19 19 18 18 18 18 18 18 19 19 19
11 8 9 3 2 4 4 4 2 4 1 2 3 4 2 5 7 5 6 5 6 4 2 2 3 1 2 2 0 1 1 1 4 2 6 12 11 16 22 20 19 18 17 16 16 15 16 17 17 13 11 11 12 13 14 14 13 13 12 11 12 12 11 11 12 12 11 12 14 15 16 16 15 16 16 16 16 17 17 18 18 18 18 18 18 18 18 18 18 17 17 17 17 18 18 18 18
7 7 9 3 2 2 3 3 2 3 1 3 1 5 5 6 6 5 3 4 6 2 1 2 2 1 1 2 1 2 2 2 5 3 8 11 13 21 23 21 20 17 17 16 15 15 17 18 17 14 11 10 11 12 13 14 13 12 11 11 12 12 11 12 12 11 11 12 12 13 15 15 15 15 16 15 16 16 16 17 18 18 18 18 18 17 17 17 17 17 17 17 17 17 17 17 17
6 5 9 7 4 1 3 0 1 1 4 5 2 5 6 6 6 6 4 3 4 2 3 2 3 3 1 1 1 3 3 3 6 6 11 13 16 22 23 22 19 17 17 15 15 15 17 18 17 15 11 10 11 11 11 13 12 11 11 11 11 11 11 12 12 11 11 11 11 12 14 14 14 15 15 15 15 15 16 17 17 17 17 17 17 17 16 16 16 16 16 16 16 16 17 17 17
8 3 5 6 2 2 3 2 3 3 4 5 4 5 5 6 5 7 6 3 2 1 2 2 3 5 1 2 1 2 2 6 6 9 15 15 19 23 23 22 18 18 17 15 15 15 16 17 18 15 12 11 11 11 10 11 12 11 11 11 10 9 10 12 12 10 10 11 11 12 12 13 14 13 13 13 14 15 15 16 16 15 16 16 16 16 15 15 15 15 15 15 16 16 17 17 17
8 3 1 4 1 3 4 1 3 3 3 3 4 5 5 6 6 8 7 3 2 1 2 2 1 4 1 1 2 2 1 6 5 12 18 16 21 23 23 22 18 18 16 16 16 15 16 18 18 16 14 12 11 11 10 10 11 12 11 9 9 7 9 12 12 10 9 11 11 10 11 12 12 11 12 13 13 14 14 14 15 15 15 15 15 15 15 14 14 14 14 14 15 16 17 17 17
7 4 0 3 2 2 2 2 3 3 4 4 4 5 4 6 5 6 7 2 1 3 3 4 2 1 2 2 1 4 1 6 8 15 18 18 23 23 23 22 19 19 17 16 16 16 17 18 17 16 15 13 13 11 9 10 10 11 10 7 8 6 7 11 12 11 10 11 10 9 10 11 11 12 13 13 13 13 13 13 14 14 13 13 14 14 14 14 13 13 13 14 15 15 16 16 16
5 4 0 2 2 1 3 3 2 3 4 5 5 6 4 6 5 4 5 2 1 5 3 2 2 2 3 2 2 2 1 8 14 17 17 20 24 24 24 21 20 20 18 17 16 16 16 17 16 15 15 13 13 12 10 10 9 10 9 8 8 6 6 9 11 12 11 11 10 10 10 11 10 11 12 13 12 12 13 13 13 13 13 13 12 12 13 12 12 12 12 13 13 14 14 14 14
2 4 2 3 3 2 2 4 3 4 5 4 4 5 5 6 6 3 2 2 1 3 3 0 2 3 3 0 3 1 5 13 18 19 18 22 24 24 24 21 20 20 19 18 16 16 16 16 15 13 13 13 13 13 12 10 10 10 9 9 8 6 5 7 10 12 11 9 10 11 10 9 10 11 12 12 12 12 12 12 12 12 12 12 11 11 12 12 11 11 11 12 12 12 12 12 13
1 4 4 3 2 3 3 3 4 5 6 4 1 3 4 6 5 4 3 3 1 1 3 3 2 5 3 3 3 1 7 16 18 20 20 22 23 24 23 21 20 19 19 18 16 16 16 16 15 13 12 13 13 14 13 11 11 10 9 9 7 6 4 5 8 11 9 8 10 11 10 9 10 10 11 11 11 12 11 11 11 11 11 11 10 10 10 11 11 10 10 10 10 10 11 11 11
2 1 4 2 2 2 3 2 4 4 6 3 3 2 5 7 4 6 6 3 3 3 4 5 4 5 3 3 3 1 7 17 18 20 22 23 24 23 22 21 20 19 18 18 16 15 16 16 14 14 13 12 12 13 14 12 11 10 9 8 7 5 4 4 8 11 9 9 11 11 10 9 8 9 10 10 10 10 11 11 11 10 10 10 10 9 9 11 11 9 9 9 9 9 9 9 10
2 3 4 1 1 2 4 1 2 1 4 5 2 3 4 3 4 6 7 4 5 5 2 4 6 4 2 2 3 3 8 18 19 22 24 24 24 23 22 21 20 19 18 18 17 15 15 16 15 14 13 12 11 13 14 12 12 11 10 9 7 6 4 5 8 11 9 9 12 10 9 8 7 7 8 7 8 9 9 10 10 10 9 9 9 9 10 12 10 9 8 8 8 7 7 7 8
1 2 4 3 1 1 3 1 1 3 4 5 2 5 4 1 4 5 6 7 6 5 1 3 5 1 3 4 3 5 13 21 21 24 26 24 24 23 22 21 20 19 18 18 17 15 15 16 16 15 14 13 12 13 14 13 13 13 11 9 8 6 4 6 7 9 8 9 11 10 8 7 6 6 6 7 7 7 7 8 9 9 9 8 8 8 10 12 10 9 8 7 6 6 6 6 6
2 3 4 2 1 1 3 2 3 3 4 4 2 4 6 2 3 4 4 5 3 2 1 2 3 0 4 6 3 7 19 24 24 26 26 24 23 22 22 20 20 19 18 18 17 16 16 16 16 15 15 14 13 13 13 12 12 12 11 10 7 6 6 6 6 7 7 9 11 10 8 8 7 6 6 6 6 5 5 6 8 9 8 7 8 9 11 12 11 9 8 6 5 5 5 5 5
1 3 3 1 2 3 4 4 4 3 5 4 4 3 8 4 1 2 1 5 4 1 1 3 2 0 4 4 5 8 24 25 26 27 25 24 23 22 21 19 18 18 18 18 18 18 17 16 16 16 16 14 14 14 13 12 11 11 10 9 8 7 7 6 6 6 6 8 10 9 8 7 7 6 6 6 5 5 5 6 7 8 8 8 9 10 12 12 11 10 8 7 5 4 4 3 3
2 2 2 2 3 3 4 6 5 3 2 3 4 4 7 6 2 2 2 4 3 0 3 3 3 2 3 4 1 17 27 27 28 27 25 25 23 22 22 21 20 19 19 19 18 18 18 17 16 17 17 16 15 14 14 13 12 11 10 10 9 8 7 7 6 6 6 7 8 9 8 7 7 6 6 5 5 5 7 7 6 6 6 7 9 11 12 12 11 10 9 7 6 4 3 2 2
1 2 2 3 4 3 4 5 4 2 2 2 4 2 4 6 5 4 3 1 2 2 4 4 4 5 1 3 12 23 27 27 28 27 26 26 25 24 23 22 22 21 20 21 19 18 20 20 18 18 18 17 16 15 15 14 13 13 12 11 10 9 8 7 6 6 6 6 7 8 8 7 7 7 6 6 5 5 6 7 6 6 5 5 7 10 11 11 10 10 9 8 7 5 3 2 1
1 3 1 4 4 4 4 4 4 5 3 2 4 2 3 5 4 4 4 3 2 6 7 2 5 7 1 6 15 21 24 25 25 25 26 26 26 26 25 25 25 24 23 22 22 20 20 21 21 20 19 19 18 17 16 15 15 14 13 12 11 10 9 8 7 6 6 6 7 7 7 7 7 7 7 6 5 5 5 6 6 6 6 6 7 8 10 9 9 8 8 8 7 6 5 3 2
0 3 4 5 2 3 4 4 5 5 3 3 2 4 3 4 3 4 6 6 4 8 9 9 10 8 7 7 13 19 21 21 22 23 23 25 26 25 26 26 25 25 24 23 23 23 21 22 22 22 21 20 19 18 18 17 16 15 14 14 13 12 11 10 9 8 7 7 7 7 8 8 8 8 8 7 6 5 5 5 5 5 5 6 6 7 8 8 8 7 7 7 7 7 6 5 4
1 2 5 6 2 3 5 3 3 2 1 2 3 4 4 3 1 4 9 8 6 6 8 10 9 9 12 13 14 17 17 18 20 21 22 24 26 25 24 25 24 24 24 23 24 25 24 23 23 23 22 21 20 19 18 18 17 16 16 15 14 14 13 12 11 10 9 8 7 8 9 9 9 9 8 8 7 6 6 5 5 5 5 5 6 6 7 7 7 7 7 6 6 6 6 5 5
1 2 1 4 3 4 5 1 3 2 4 4 4 4 4 5 2 3 8 10 4 2 5 8 7 9 14 16 16 15 15 17 20 23 25 26 26 26 25 25 25 26 26 25 25 26 26 25 25 25 24 23 22 20 19 19 18 17 17 16 16 15 15 14 13 12 10 10 9 9 9 10 9 9 8 8 7 6 6 7 6 5 5 5 6 6 7 7 7 7 6 6 6 6 5 5 5
1 3 2 3 3 5 5 3 4 3 7 6 4 2 4 9 4 1 6 10 3 4 3 5 9 10 12 14 14 15 18 20 23 27 28 28 28 28 26 26 26 27 27 27 26 27 28 27 27 26 25 24 23 22 21 20 20 19 18 17 17 16 16 15 14 13 12 12 10 10 10 10 10 9 9 7 6 5 5 6 7 7 7 6 7 7 7 7 7 7 6 6 6 6 5 5 5
1 4 3 2 2 5 6 5 4 2 6 3 3 2 3 8 5 2 8 10 5 2 3 6 9 10 10 11 12 13 15 19 22 23 24 25 25 25 25 26 26 27 28 29 29 28 29 29 28 27 26 26 25 24 23 22 21 20 20 19 18 17 17 16 15 14 14 13 12 12 11 11 11 10 9 7 6 5 5 5 6 8 8 8 8 8 7 7 7 7 6 6 5 6 5 5 6
3 4 3 1 4 7 6 4 2 2 3 2 4 2 3 3 3 2 9 7 4 3 6 5 7 9 9 10 11 12 12 16 20 20 22 22 22 24 26 27 27 28 29 30 30 30 30 29 29 29 28 27 26 25 25 24 23 22 21 20 19 19 18 17 16 16 15 15 14 13 13 12 12 10 9 8 7 6 5 6 5 7 8 8 8 8 7 7 7 7 7 6 6 7 7 8 8
3 4 3 4 3 7 3 2 3 3 2 3 5 2 2 3 1 4 6 2 4 7 5 3 6 8 10 9 10 12 13 17 21 20 19 19 21 25 27 28 28 30 30 29 31 32 30 30 30 29 29 28 27 27 26 25 25 24 22 21 21 20 19 18 17 17 16 16 16 15 14 13 13 12 10 10 9 7 7 7 6 6 7 8 7 7 6 6 6 7 7 7 7 8 9 10 10
3 4 4 5 2 5 4 4 5 2 1 4 6 3 2 3 1 6 3 1 4 6 5 5 6 7 8 8 7 9 12 16 19 18 19 21 24 26 28 29 30 30 30 30 32 32 31 31 31 30 30 29 28 28 27 26 26 25 23 22 21 21 20 19 18 18 17 17 16 17 16 15 15 13 12 12 11 10 8 8 8 8 7 7 7 6 5 5 6 6 7 7 8 9 10 10 11
2 4 3 5 3 5 6 4 3 0 2 4 5 1 3 2 6 6 1 3 5 6 6 5 7 6 6 7 6 7 10 13 15 18 22 25 26 27 28 31 32 31 31 32 31 31 32 32 31 31 30 30 30 29 28 27 26 25 24 23 22 21 21 20 20 19 19 18 18 18 18 17 17 15 14 14 13 11 10 9 9 10 8 8 8 7 7 7 6 7 7 8 9 10 11 11 11
2 2 1 3 3 5 5 1 1 2 2 2 3 2 4 8 11 4 2 4 7 6 6 6 6 6 5 6 5 6 9 12 16 22 26 27 27 27 28 30 31 33 32 31 32 33 33 33 32 31 30 31 30 30 29 28 27 26 25 24 23 22 22 21 21 20 20 19 19 19 19 18 18 17 16 15 15 13 12 11 10 10 9 8 8 8 8 8 8 8 8 9 10 11 12 11 12
2 1 1 0 1 5 5 0 2 3 2 1 3 4 5 9 10 3 3 5 7 7 7 6 7 6 6 6 6 7 9 14 19 23 26 27 26 26 28 29 29 32 32 32 34 34 34 34 33 33 32 31 31 31 30 29 27 26 25 25 24 23 22 22 22 21 21 20 20 20 19 19 19 19 18 17 16 15 13 12 11 10 9 9 9 10 10 10 10 10 10 10 11 11 12 12 12
2 2 1 1 2 4 6 1 5 4 2 2 4 4 5 9 9 3 2 4 6 8 7 7 7 7 7 6 7 7 8 13 18 21 24 25 25 26 28 29 29 31 32 34 35 34 34 35 35 34 34 33 33 32 31 30 29 27 26 25 25 24 24 23 23 22 22 22 22 21 20 20 20 20 19 18 17 17 16 15 13 12 11 11 11 11 11 11 10 10 11 11 11 11 11 12 13
1 1 2 1 3 3 5 3 4 3 1 0 3 3 3 6 5 4 1 5 6 6 7 7 7 7 7 6 7 7 7 9 13 20 25 26 27 29 30 31 31 32 33 34 34 33 35 35 36 36 35 35 34 33 32 32 31 29 28 27 26 25 25 24 23 23 23 23 23 22 21 21 20 20 20 19 18 17 17 16 15 14 14 14 13 13 13 12 11 11 11 11 11 11 12 13 15
0 1 3 3 4 4 3 4 3 2 1 3 4 4 5 7 6 4 3 5 6 6 9 7 6 6 6 6 6 6 7 7 10 19 28 30 30 31 32 32 32 32 33 34 34 34 35 35 36 36 36 35 35 34 34 33 32 31 30 29 28 27 27 26 25 24 25 24 24 24 22 22 21 21 20 20 19 18 17 17 17 16 16 15 14 14 14 13 12 12 12 11 10 11 13 15 17
7 6 6 3 2 3 4 4 2 4 3 3 5 5 6 11 12 6 1 4 6 8 8 5 6 7 7 6 7 7 8 9 14 23 28 28 29 31 31 31 31 31 32 33 34 34 34 35 35 36 36 36 36 35 34 34 33 32 32 31 31 30 30 29 28 28 27 26 26 25 24 23 22 22 21 21 20 19 17 17 17 16 17 16 15 15 15 14 13 14 15 12 10 12 15 17 17
10 6 5 4 3 4 4 4 3 2 3 4 7 6 7 12 15 9 3 2 5 6 6 5 7 7 7 7 7 8 9 11 19 24 23 22 26 29 30 31 30 31 31 32 34 35 35 35 34 35 37 36 36 35 34 33 33 33 33 32 33 33 32 31 31 30 29 28 27 26 25 24 23 23 22 22 21 21 19 19 18 17 16 16 17 17 17 16 14 15 17 14 12 15 16 15 15
6 4 4 5 5 4 4 2 5 1 2 5 6 6 7 10 14 10 3 2 4 6 6 7 8 8 7 8 8 9 11 13 16 19 19 22 26 28 29 29 29 29 30 31 33 35 35 35 35 37 38 37 36 35 34 34 34 33 32 34 35 33 32 32 32 32 31 31 29 27 26 25 24 24 23 23 22 22 22 21 20 19 16 15 17 18 18 17 16 18 19 15 15 18 15 12 13
6 6 5 4 5 5 4 3 3 1 3 4 3 4 8 9 14 11 5 4 6 8 8 9 10 10 7 8 10 11 10 10 10 14 17 21 24 26 28 29 29 30 32 34 34 35 36 36 38 38 38 37 37 37 36 36 36 35 34 34 33 31 31 32 33 33 33 32 31 29 28 26 26 25 24 24 23 23 23 22 22 21 19 17 16 16 18 19 19 20 20 16 16 17 14 11 14
5 4 4 5 4 3 5 3 2 0 4 4 2 2 8 9 14 14 7 7 9 9 10 10 11 9 7 8 11 11 10 9 9 12 15 20 24 24 26 28 31 33 34 35 35 35 36 37 39 39 37 37 38 38 38 38 38 37 35 34 32 30 31 33 33 33 33 33 32 31 30 28 27 26 25 25 25 24 24 23 23 22 22 20 16 15 17 19 20 21 21 19 18 17 14 12 15
4 3 4 4 2 2 4 3 2 1 1 2 1 2 6 7 10 13 10 8 9 9 10 10 9 8 10 11 10 10 11 12 12 11 12 17 21 22 25 29 32 34 34 34 34 35 37 39 39 38 38 38 39 40 40 39 38 36 35 33 32 30 30 31 31 32 33 32 32 32 31 30 29 27 26 25 25 25 25 24 22 21 22 22 20 17 17 18 20 20 20 20 19 17 14 12 14
4 4 5 3 2 3 4 1 2 3 2 1 1 4 6 5 8 12 7 4 7 9 8 9 9 9 10 8 8 9 11 12 13 12 11 13 18 23 28 30 31 32 34 36 37 38 39 40 39 39 39 39 40 40 40 38 36 34 32 30 27 26 27 27 27 30 31 30 31 31 31 30 29 28 27 26 26 25 26 26 23 19 20 22 23 21 18 18 18 19 20 21 20 18 15 13 15
5 5 7 6 6 4 2 0 1 2 3 2 1 3 7 4 7 12 7 3 7 7 6 9 10 9 8 8 10 11 11 12 11 12 10 11 18 23 26 28 29 31 35 37 38 39 40 40 39 39 40 40 40 39 39 38 37 35 32 30 27 25 25 27 28 30 29 28 29 29 28 28 28 28 28 28 27 26 26 26 25 21 18 18 20 19 20 20 18 18 19 21 20 18 16 16 17
4 6 9 7 6 4 2 2 1 2 4 3 1 5 7 5 6 10 7 6 8 8 8 10 9 8 8 9 11 11 11 11 10 11 10 10 16 19 22 27 30 33 36 36 37 38 39 38 38 39 40 40 39 39 38 38 38 37 35 34 32 30 29 29 30 30 28 27 27 26 26 26 26 26 27 27 27 27 26 25 24 24 21 18 19 22 24 21 18 19 20 19 18 16 17 18 18
4 5 10 9 7 7 6 4 3 3 2 3 0 2 5 6 6 7 3 5 9 8 10 11 9 9 10 11 12 12 12 11 10 11 10 11 16 19 24 29 32 35 36 35 36 37 38 38 38 39 39 40 39 39 39 39 39 38 36 36 35 34 33 31 30 28 27 26 25 25 25 24 25 25 25 26 26 26 26 25 24 26 24 22 23 24 25 22 19 21 21 19 17 17 19 19 16
5 3 7 7 6 6 6 5 5 1 3 5 3 1 4 7 6 3 1 5 11 9 9 12 10 10 11 12 12 12 12 11 10 11 11 13 18 24 28 29 31 35 35 34 36 36 37 37 37 36 38 39 39 38 39 39 40 39 38 37 35 35 33 31 28 26 25 24 24 24 23 23 23 23 24 24 24 25 26 25 27 28 26 25 24 22 21 22 21 20 20 20 19 19 18 17 16
3 5 6 4 3 2 1 3 2 2 3 8 4 3 5 8 6 3 1 5 9 7 8 11 11 10 10 10 10 10 9 9 9 10 12 15 20 24 26 26 27 29 30 31 33 33 33 34 34 35 36 37 38 38 39 39 39 39 38 37 36 34 32 30 27 25 24 22 22 23 23 23 23 23 24 24 24 25 25 25 26 27 25 23 22 19 18 21 21 19 19 18 17 17 15 14 15
5 6 6 6 4 4 3 1 3 2 6 6 3 6 4 8 6 7 4 5 7 7 7 9 10 10 9 8 8 9 8 7 7 8 11 14 18 19 20 23 24 23 24 27 29 30 31 32 33 34 36 36 36 37 38 39 39 39 39 38 36 35 32 30 29 26 25 23 23 23 23 23 24 24 24 23 23 23 23 24 24 24 24 22 21 21 19 18 19 20 20 18 16 15 13 12 14
7 5 4 3 1 3 3 3 3 3 7 3 2 3 5 8 7 5 5 6 6 8 8 10 12 10 8 8 8 7 6 6 6 7 8 10 12 13 15 19 21 20 21 24 27 29 30 31 32 34 35 35 35 36 37 38 38 38 39 38 37 36 33 32 31 30 29 27 26 25 24 23 23 23 23 22 23 23 23 23 22 23 23 21 21 23 19 15 14 17 19 17 15 14 14 14 14
5 4 5 4 0 1 2 2 1 5 6 2 2 2 4 9 7 3 6 7 7 9 9 11 12 9 8 8 7 6 5 5 5 6 7 6 6 9 13 16 18 20 21 23 25 27 30 31 32 33 34 35 35 35 36 37 38 38 38 38 37 36 35 34 34 32 32 31 29 28 27 26 25 24 23 23 23 22 22 22 21 21 22 20 19 19 19 18 15 13 14 15 15 15 13 11 9
7 6 7 7 4 4 7 4 2 5 5 2 2 2 4 6 5 6 9 9 11 10 9 10 10 9 10 8 7 6 6 6 5 5 5 5 6 8 11 15 17 19 20 22 23 25 27 29 30 31 32 33 34 34 35 36 37 37 38 37 37 36 35 35 34 34 33 32 31 30 29 28 27 25 25 23 22 21 21 20 19 18 19 20 19 16 17 19 18 15 14 15 14 12 8 6 6
6 5 5 6 5 5 6 5 3 4 3 2 2 3 4 3 3 7 10 9 10 7 6 8 8 9 9 7 8 8 8 7 4 4 5 5 6 7 9 11 13 14 16 18 21 22 24 26 28 30 30 30 31 33 34 35 36 36 36 36 36 36 35 35 34 34 33 32 31 30 29 28 27 26 24 22 20 19 18 18 16 15 16 19 20 19 16 15 17 16 13 11 10 10 11 10 10
3 3 4 5 6 5 3 3 4 3 1 3 3 4 4 4 6 9 6 7 9 8 7 7 9 9 6 7 9 9 9 7 4 4 4 4 5 6 8 8 8 9 11 13 16 19 22 24 26 28 29 29 30 32 33 35 35 35 35 35 34 34 34 33 33 32 31 31 30 29 28 27 26 24 22 20 19 17 16 16 16 16 17 18 18 18 16 14 14 12 11 11 10 11 12 11 10
2 3 6 6 4 7 4 2 0 3 3 4 2 5 6 3 8 10 6 6 8 8 8 8 11 9 6 8 8 8 10 7 5 4 4 4 3 4 6 7 7 8 9 10 11 13 17 20 23 26 27 28 29 30 31 33 33 33 33 33 32 32 32 32 31 31 30 29 27 27 26 25 24 23 21 20 18 16 16 16 15 17 19 16 13 13 13 13 13 13 12 11 11 12 11 10 8
6 5 7 3 2 3 3 2 1 2 5 4 1 6 6 3 6 6 4 7 10 11 9 8 9 7 7 9 8 9 9 6 4 4 4 4 3 3 5 7 7 8 7 8 9 10 12 14 18 22 25 27 27 28 29 29 30 31 31 30 30 30 30 30 29 28 27 27 26 26 25 24 23 22 20 19 17 17 18 16 13 15 17 15 13 13 14 13 14 13 12 12 12 11 10 9 7
5 6 6 5 3 3 2 2 3 3 4 5 3 4 4 7 6 3 3 8 12 14 10 6 8 8 8 9 9 8 7 5 5 5 5 4 3 4 5 6 7 7 7 7 8 10 11 11 12 15 18 21 23 24 25 26 26 27 28 28 28 28 28 27 26 25 25 25 25 25 25 24 23 21 19 18 18 19 20 16 13 15 18 18 16 14 11 10 10 10 10 11 11 11 10 8 6
2 3 4 3 3 4 3 3 4 4 4 5 4 4 4 7 7 5 7 8 10 13 10 7 9 9 8 9 8 7 6 5 5 5 5 4 4 5 6 7 7 7 7 6 7 8 10 11 11 11 12 14 17 19 21 23 23 24 24 25 25 25 25 25 24 24 24 24 24 24 23 22 20 19 18 18 20 22 21 17 16 18 18 16 14 11 9 8 8 9 10 11 12 11 10 8 6
3 4 6 4 1 2 2 2 2 3 4 4 2 5 7 6 5 9 10 9 11 13 11 8 8 7 8 7 5 4 4 5 5 5 4 4 4 5 6 7 8 8 8 7 7 8 9 11 12 12 13 13 15 16 18 19 21 21 22 22 23 23 23 23 23 23 23 22 22 21 20 19 18 18 19 21 23 23 19 16 18 20 17 14 11 10 9 9 10 11 12 13 12 11 10 10 10
8 6 7 6 4 4 3 5 3 3 3 5 3 6 9 5 5 8 10 11 13 11 8 7 7 7 7 6 5 4 5 5 5 5 5 4 4 6 7 8 8 8 8 8 8 8 9 10 12 13 14 15 15 16 17 17 18 19 19 19 20 20 20 20 21 21 20 20 20 19 18 18 19 21 23 25 24 21 17 18 20 19 17 14 12 11 11 11 12 14 14 13 12 12 13 14 13
Wind_Direction
356 351 348 357 352 343 352 46 78 321 68 70 305 108 247 221 178 154 128 165 139 236 215 110 126 136 112 154 176 175 149 154 167 131 202 241 143 159 159 152 155 147 140 138 141 140 133 132 129 132 139 136 137 131 120 114 113 110 109 107 100 99 97 93 92 92 92 91 92 93 91 90 89 89 89 88 87 86 88 92 96 96 93 89 86 83 83 85 87 87 86 85 84 83 84 85 85
356 353 354 358 3 16 311 69 83 329 46 25 285 174 262 315 157 173 172 196 199 190 142 107 102 95 59 57 118 124 82 83 172 155 169 135 144 160 159 157 156 147 144 142 143 139 135 134 133 134 134 137 140 133 121 117 114 111 111 106 104 103 101 99 100 100 96 94 95 95 91 90 89 88 88 87 87 87 88 91 95 97 93 90 87 84 85 87 88 87 86 84 83 82 84 85 85
355 357 358 342 4 38 65 40 79 65 53 315 277 245 263 145 194 197 197 211 187 155 119 100 75 70 43 28 52 107 154 23 161 165 122 144 150 160 161 161 156 150 146 140 143 143 141 140 137 134 137 142 141 137 126 121 117 112 111 108 111 106 101 100 100 99 95 97 98 97 94 92 92 91 90 89 89 88 88 89 93 96 93 89 87 86 86 88 88 87 85 83 82 82 84 85 85
358 8 359 343 29 35 63 36 121 116 54 236 281 273 233 185 201 211 225 214 168 130 68 77 59 55 75 91 239 101 183 167 165 163 138 159 163 160 162 161 158 152 143 140 146 145 140 140 137 137 145 145 143 140 129 125 123 118 116 114 114 107 101 101 101 98 93 95 98 99 96 94 95 95 93 92 92 90 89 89 93 95 92 90 88 87 87 88 88 87 85 83 82 82 84 86 86
1 23 11 31 80 34 94 63 117 99 223 194 300 276 241 207 194 192 220 196 174 130 76 107 96 247 105 137 168 143 210 152 170 176 141 166 168 159 162 162 159 151 144 143 145 145 142 143 140 143 148 144 147 144 133 130 127 123 121 118 116 109 103 103 105 100 95 93 94 97 95 92 93 94 92 93 93 92 92 92 95 95 92 90 89 88 87 88 88 87 87 84 82 83 85 87 86
7 35 30 58 88 100 117 45 182 223 233 172 174 261 235 211 195 167 143 189 217 230 178 141 155 168 70 324 142 163 210 139 160 176 154 165 165 160 164 163 157 148 147 145 144 146 145 147 143 142 145 144 149 146 139 136 132 129 125 120 115 114 111 107 106 101 99 97 96 95 95 95 94 94 92 92 92 91 93 95 97 95 93 91 90 89 87 88 88 88 87 84 82 83 86 88 87
10 5 26 61 62 41 102 182 212 239 243 176 180 246 228 204 191 149 144 190 233 263 162 189 170 124 97 312 149 205 206 150 153 170 165 166 164 162 166 163 154 149 150 147 147 147 143 146 145 143 147 150 149 145 146 144 142 136 129 123 116 120 123 113 106 108 106 100 100 97 99 101 97 96 91 89 92 94 95 96 100 96 92 93 91 89 88 88 88 88 86 85 85 85 86 86 86
12 8 3 85 46 29 87 200 236 219 237 226 210 241 229 188 170 148 165 186 187 237 100 201 203 93 177 33 143 261 168 157 155 166 167 165 164 164 167 163 153 151 153 152 152 148 144 148 150 149 152 158 154 147 153 152 148 139 130 129 127 128 127 119 109 111 113 102 99 102 103 100 94 90 90 93 95 97 96 98 104 100 95 94 93 91 90 90 90 89 86 86 87 87 86 85 82
21 35 332 88 93 52 42 306 275 240 253 270 251 252 231 165 152 145 169 210 235 169 139 196 216 66 188 79 217 284 354 161 154 162 167 166 167 167 168 167 159 155 156 157 156 152 148 151 156 157 158 164 160 153 156 154 148 141 137 141 140 130 126 128 117 110 112 107 106 107 101 92 90 88 91 96 96 96 94 100 107 102 98 98 97 95 94 93 92 91 89 90 89 88 87 84 81
30 29 127 89 98 91 343 287 269 263 251 256 254 247 200 150 139 131 155 204 220 147 167 205 85 91 136 133 255 313 127 156 151 160 169 169 169 169 170 170 166 159 157 160 160 156 152 155 158 161 164 166 162 157 156 156 152 148 151 153 149 137 126 132 127 117 114 119 121 111 101 94 94 96 97 98 98 100 97 100 106 106 105 102 99 99 100 97 95 96 94 94 92 90 88 84 80
28 0 97 85 76 137 234 246 265 270 270 289 282 247 185 142 127 125 127 170 171 124 177 217 95 124 89 249 251 308 158 158 158 163 169 172 171 172 172 172 171 164 161 162 163 160 156 158 159 159 164 166 167 164 161 160 158 159 163 156 151 151 132 133 137 128 121 133 131 113 111 110 106 107 105 104 105 105 104 102 103 108 109 106 105 106 107 102 100 101 98 96 94 91 88 83 77
55 344 65 92 135 181 198 220 270 282 304 317 274 246 166 131 129 163 156 158 153 94 219 209 159 127 75 298 253 308 166 166 169 168 171 174 173 174 175 174 173 168 164 164 165 164 160 161 161 158 160 164 168 169 168 163 162 167 167 159 161 168 147 141 144 135 131 142 140 127 129 126 118 117 114 114 113 111 111 110 107 108 111 113 113 114 116 110 107 108 104 98 93 90 85 79 74
102 116 87 115 180 165 161 188 274 313 318 275 208 223 143 133 181 187 150 134 140 145 249 209 148 102 106 267 272 310 184 176 172 171 173 174 175 176 178 177 175 171 167 168 168 166 166 165 162 158 157 160 165 169 172 166 166 172 168 168 177 185 174 152 143 143 148 150 147 147 145 137 130 129 124 121 119 120 120 118 115 113 117 123 121 121 126 121 118 115 108 102 95 91 83 75 71
106 150 115 139 68 120 163 193 277 320 283 259 225 181 151 147 187 169 135 146 194 178 255 191 143 106 140 243 291 283 195 181 173 173 173 174 178 178 180 180 178 174 171 174 173 170 169 170 166 161 158 159 161 166 172 172 173 176 173 178 191 204 192 156 145 152 159 154 153 157 156 152 142 133 129 125 125 129 128 125 122 120 121 126 128 128 134 132 129 124 115 110 103 97 88 80 73
111 137 92 119 50 339 195 218 164 146 245 241 190 159 152 176 138 138 156 169 221 218 154 141 142 163 182 168 239 239 189 179 173 172 171 174 178 179 182 182 181 178 176 179 177 176 173 174 171 164 163 162 161 164 172 178 182 186 183 189 203 210 183 152 146 152 157 156 159 161 158 158 151 138 131 124 125 131 135 134 128 126 125 128 135 132 137 140 138 135 128 122 116 107 97 88 79
111 114 63 112 165 243 208 193 134 129 252 235 230 151 145 230 127 142 207 158 177 250 106 172 167 161 177 167 248 220 180 175 171 170 170 172 176 179 182 181 183 182 181 183 181 182 178 178 175 169 169 167 165 165 171 180 187 191 189 194 201 192 169 154 147 147 150 156 164 165 162 161 157 148 136 127 120 123 136 143 137 133 132 137 145 141 144 148 148 145 140 135 127 121 110 97 86
76 95 74 149 184 207 198 193 175 167 262 270 280 199 158 206 288 160 205 96 122 210 327 243 221 116 186 219 307 186 172 171 168 167 167 169 173 175 180 181 181 183 185 186 186 187 183 181 180 176 174 172 171 170 173 177 182 185 184 185 183 176 167 161 156 152 152 157 167 171 171 169 164 156 145 137 121 110 117 131 139 141 143 149 155 155 155 156 157 156 152 148 140 133 126 110 92
36 87 132 203 187 200 186 187 195 172 302 279 246 226 176 184 189 172 101 63 71 84 298 301 286 276 238 283 213 162 166 167 166 166 167 169 173 173 179 183 181 184 187 188 189 189 187 185 183 181 179 178 177 175 177 177 179 180 177 178 176 174 170 167 166 163 162 163 172 179 181 179 173 165 154 146 130 113 113 120 131 139 149 154 157 160 161 164 166 168 166 164 160 154 147 131 99
71 122 143 214 197 217 203 182 184 191 293 245 224 218 200 201 163 158 186 207 83 161 260 330 305 279 342 109 147 156 162 165 168 170 170 173 176 176 179 183 184 186 188 190 191 191 192 190 186 186 183 182 182 181 182 182 183 183 181 181 179 178 176 176 175 172 173 171 177 183 186 187 182 175 167 161 150 135 126 126 130 131 144 153 155 160 165 171 174 176 178 180 181 178 177 175 149
207 137 140 249 235 270 251 202 208 229 242 226 233 157 189 231 163 156 181 168 153 199 220 221 237 244 165 135 148 156 162 168 173 174 176 179 182 182 181 184 187 189 191 194 193 194 196 194 192 190 187 185 186 186 186 188 188 188 188 188 188 187 185 186 186 184 182 180 182 184 186 186 185 185 180 177 172 165 153 142 139 136 144 154 155 161 170 177 180 183 186 191 196 199 203 208 221
210 144 175 220 229 299 265 212 229 247 236 215 194 134 188 233 169 162 148 140 237 234 217 204 208 197 166 160 158 161 165 172 179 179 181 184 186 188 189 190 191 192 195 196 196 198 198 197 197 195 193 190 190 191 191 192 193 193 193 194 195 195 194 195 196 196 192 188 187 187 187 185 185 187 187 187 186 185 184 169 157 148 150 161 166 169 178 185 189 191 196 202 207 212 219 225 229
208 211 185 205 195 279 264 211 217 236 227 202 147 166 195 173 161 174 160 176 233 240 219 208 202 177 166 165 164 167 170 178 183 186 187 187 190 192 193 194 193 195 198 200 199 201 202 201 200 200 198 195 196 197 196 196 197 198 198 198 199 200 201 202 203 204 201 196 193 190 188 187 186 187 189 190 193 196 198 196 185 172 167 173 180 184 189 194 197 200 205 209 213 218 223 230 235
230 271 209 232 225 243 271 308 241 193 144 181 183 204 159 147 225 179 180 208 215 301 242 202 184 174 167 160 162 170 176 184 189 192 192 191 193 193 194 194 194 197 200 204 203 203 205 204 204 204 203 201 200 201 201 200 200 203 203 203 204 204 205 206 208 209 208 205 201 197 192 190 188 185 187 187 191 198 202 207 208 203 193 192 196 198 200 201 204 205 206 210 215 219 223 234 241
261 257 233 240 209 223 272 329 289 218 183 208 184 157 152 177 209 115 212 227 218 341 300 166 151 153 159 161 169 179 182 188 193 195 196 195 196 196 195 196 197 200 202 206 206 206 207 208 208 206 207 206 204 204 205 204 204 206 207 208 209 208 209 210 211 212 213 213 210 207 203 200 196 192 191 188 192 197 204 212 216 217 214 213 212 210 210 208 208 208 212 217 222 227 233 241 247
246 231 227 262 235 242 280 301 306 271 218 218 134 165 216 191 166 138 237 243 247 340 57 121 132 140 162 176 181 185 187 194 197 197 199 200 200 199 199 200 201 202 205 207 207 208 208 210 210 209 210 211 209 207 208 209 208 209 210 211 212 212 214 214 214 216 217 218 218 216 214 213 211 207 203 200 204 204 209 221 226 224 222 223 221 220 220 218 217 218 223 234 246 255 261 267 267
211 195 214 282 298 285 296 301 311 312 253 161 154 228 303 206 146 256 253 245 217 101 89 123 134 150 176 185 189 190 192 197 198 198 200 202 201 201 202 203 203 204 208 209 209 210 209 210 211 211 212 213 213 212 211 213 213 214 214 214 216 216 217 217 216 218 221 223 224 224 223 223 223 222 219 217 220 220 223 233 238 233 226 223 221 218 221 224 227 230 239 256 274 281 287 290 288
167 170 223 208 269 294 296 299 289 301 288 169 176 192 309 274 207 250 264 256 149 114 106 147 155 174 186 190 196 196 199 201 199 198 198 201 201 203 205 204 205 208 209 210 211 211 211 211 212 212 214 215 215 216 216 216 217 218 219 218 219 219 220 219 218 220 223 226 229 230 230 231 230 231 230 231 234 234 237 241 244 244 233 222 217 215 220 226 231 239 250 262 277 288 294 294 292
154 186 245 233 260 298 276 284 285 293 260 177 155 168 279 339 246 232 245 92 140 134 143 173 184 197 195 197 200 200 209 207 201 198 199 203 204 204 206 206 207 209 211 212 213 212 212 212 213 214 216 217 218 220 220 219 220 221 221 222 221 222 223 222 222 224 226 229 231 233 235 236 235 236 235 235 239 240 247 250 249 249 244 234 230 228 232 234 237 246 256 267 281 297 306 304 298
197 190 227 276 314 293 262 260 274 13 226 191 136 180 285 253 234 239 166 110 116 130 164 187 199 207 205 204 205 209 215 209 204 207 210 210 209 208 209 210 209 211 214 215 216 215 213 214 215 216 216 218 220 222 223 223 223 223 223 224 223 223 225 226 227 228 230 232 232 235 238 239 239 240 240 239 241 244 249 251 252 252 251 252 248 245 246 249 256 264 271 279 292 305 312 313 308
213 169 121 305 317 279 268 272 239 137 194 218 149 241 270 242 238 227 116 132 114 137 192 200 208 211 209 207 208 219 215 208 209 214 216 215 215 214 214 214 213 214 216 216 218 218 216 216 217 218 218 218 220 222 224 225 225 226 226 226 226 225 226 228 230 231 233 233 233 236 237 240 242 243 244 243 243 247 248 247 251 251 253 256 256 256 257 260 266 275 284 290 297 307 312 314 311
162 156 115 17 207 261 289 326 184 179 200 49 146 222 265 258 251 220 177 165 144 184 213 208 213 211 210 211 211 223 218 214 218 219 220 220 219 218 219 218 216 216 216 216 219 219 219 218 219 220 220 220 221 222 224 226 228 229 229 229 229 228 228 230 232 233 234 234 234 235 236 239 242 244 245 246 246 249 248 247 247 249 254 257 259 262 262 264 268 276 286 291 298 305 310 311 310
79 168 239 351 172 268 302 261 180 202 269 67 150 215 264 267 266 262 207 179 175 207 218 216 219 214 211 214 215 224 228 224 227 228 227 226 224 222 223 221 220 219 218 219 220 220 220 221 221 222 222 223 223 224 226 228 231 232 233 233 233 232 232 232 233 234 235 236 236 236 237 238 240 243 244 246 249 250 251 251 250 251 254 259 262 263 264 266 271 281 286 289 296 300 304 307 306
32 148 204 238 182 230 298 279 200 198 292 255 188 214 265 275 285 339 16 168 183 222 230 225 221 222 219 215 222 224 232 235 233 234 232 229 226 225 225 224 223 222 221 222 221 220 221 222 222 223 224 225 225 227 228 230 232 234 236 237 237 237 237 236 236 236 237 237 237 238 238 238 240 242 243 246 249 251 253 255 257 256 257 262 263 264 267 269 273 281 287 290 292 297 305 306 303
197 189 200 229 209 203 234 255 236 162 170 238 210 209 241 265 276 320 3 148 170 225 236 236 229 234 234 226 234 232 231 236 234 233 231 228 227 226 226 226 225 225 224 224 223 223 223 224 224 224 226 227 228 229 230 232 233 235 238 239 240 241 241 242 241 240 240 240 239 239 239 240 240 241 243 245 248 252 256 259 262 260 259 262 263 264 265 267 274 281 283 283 285 294 300 295 294
193 199 199 226 254 242 233 244 238 166 191 233 205 212 238 262 270 267 289 138 173 225 240 249 243 236 237 232 233 235 234 238 237 234 232 229 228 228 228 228 228 227 227 226 225 226 226 226 226 226 227 227 229 231 231 232 234 235 237 239 241 241 242 242 242 242 242 242 242 242 242 242 241 242 244 245 248 252 255 260 263 263 264 263 262 264 262 259 265 273 274 272 280 291 289 287 294
197 192 192 188 200 254 245 250 287 173 189 237 213 217 221 242 261 259 245 153 185 241 267 257 246 238 233 231 231 233 233 238 241 239 236 233 231 231 229 229 229 229 229 228 227 226 226 226 226 227 228 228 228 229 229 229 230 231 233 235 237 238 239 240 241 242 242 244 244 243 243 244 245 245 245 247 250 251 254 257 258 259 263 264 263 261 259 257 259 272 272 269 284 289 282 288 300
188 171 200 201 194 248 254 249 317 7 184 256 231 233 238 238 259 260 198 147 219 249 260 250 246 241 231 229 234 233 232 239 248 247 241 236 235 233 230 229 228 229 230 229 228 227 226 226 226 228 228 227 227 226 225 225 225 226 227 230 233 235 236 238 240 241 242 244 244 244 245 245 246 247 247 248 250 252 254 254 253 250 254 265 270 266 259 254 257 269 264 260 280 283 278 288 291
177 182 196 217 208 235 254 222 306 9 174 270 294 247 257 253 262 262 182 173 240 233 231 241 242 239 230 229 236 238 241 249 255 249 239 234 234 232 229 227 225 226 227 227 227 227 226 227 227 228 228 227 226 226 226 226 226 226 227 229 231 233 235 237 239 241 243 245 244 245 245 245 245 245 247 248 250 252 253 253 252 249 253 263 268 267 261 250 249 256 253 256 276 277 276 285 282
163 166 165 213 221 234 264 247 292 72 175 254 309 227 255 255 259 263 229 209 240 228 221 232 234 234 228 223 232 238 247 255 250 244 236 229 230 229 226 225 224 225 227 227 227 226 226 227 227 227 227 226 227 227 227 228 229 230 231 232 232 233 237 239 241 243 246 247 246 245 244 244 244 244 246 248 249 251 250 252 252 251 256 260 262 265 264 257 252 251 247 252 264 267 268 275 280
165 140 148 209 221 179 242 264 296 285 156 213 180 260 263 256 266 268 242 218 245 243 231 236 234 227 225 225 229 231 236 244 245 243 234 226 227 225 222 223 223 224 225 225 224 225 225 226 226 225 225 226 227 228 228 229 231 232 233 235 236 237 240 242 243 244 245 245 246 245 243 242 241 242 244 246 248 251 250 249 249 255 258 257 259 260 260 263 261 258 253 251 255 255 257 270 279
211 179 164 177 181 195 227 274 285 287 345 84 98 315 277 235 251 262 247 212 255 255 239 246 245 233 236 245 243 231 230 235 239 239 232 219 219 222 222 223 222 221 222 224 223 223 225 226 226 225 225 226 227 228 229 228 228 229 229 229 232 234 237 237 237 238 239 240 242 243 242 241 240 241 242 243 246 249 251 248 246 255 261 258 257 256 258 262 260 264 264 259 261 257 255 269 275
241 212 175 170 186 210 251 259 17 327 308 295 130 275 274 254 241 249 258 260 256 257 242 241 244 237 236 247 245 236 235 236 236 240 235 219 219 224 225 223 221 221 223 224 224 225 226 225 225 225 225 225 225 226 227 227 226 224 222 220 220 222 226 229 230 233 234 235 239 241 243 243 242 242 241 242 243 244 249 249 245 250 259 258 256 254 257 258 254 264 267 258 259 260 256 261 264
243 212 167 172 202 225 233 167 161 217 258 287 154 223 264 295 253 238 256 273 262 266 264 251 247 244 228 231 239 235 236 237 235 241 237 224 222 222 224 224 220 222 226 227 226 226 226 225 224 225 225 224 224 225 225 226 224 222 221 221 221 221 224 229 233 235 236 236 239 241 244 246 246 246 245 245 245 245 246 246 248 253 255 255 254 249 248 250 253 263 265 255 254 257 256 256 259
233 203 156 170 205 225 217 183 218 235 277 294 208 216 268 278 251 231 241 284 276 272 269 263 251 245 235 230 236 234 234 234 229 236 233 226 225 220 222 224 223 226 229 227 225 225 225 224 224 225 225 225 224 224 224 224 223 221 222 223 224 225 227 231 234 237 237 238 240 242 244 248 250 250 250 249 249 249 247 245 249 251 250 254 255 249 247 248 253 261 261 252 248 249 253 257 262
237 175 141 171 192 213 213 200 230 292 344 266 227 82 271 264 258 246 182 256 262 262 263 265 255 244 239 235 236 235 237 236 228 231 232 228 227 224 225 226 228 230 228 225 225 225 225 224 223 223 224 224 224 223 223 224 224 222 222 223 224 227 229 232 235 236 236 235 236 239 242 245 249 251 252 251 250 249 248 248 250 246 245 249 249 249 253 250 249 258 258 248 244 247 252 258 262
221 118 90 66 84 69 126 189 201 46 293 252 208 159 247 267 246 203 205 246 248 256 258 260 256 248 246 246 244 242 242 242 235 234 237 236 234 232 231 230 232 231 228 226 226 225 224 223 222 222 223 224 223 223 223 223 223 222 222 222 223 226 228 230 232 233 233 231 232 234 237 240 244 247 249 250 249 248 247 247 249 248 248 251 250 250 255 251 248 255 254 243 242 250 257 261 261
125 106 71 49 52 46 52 82 81 98 263 268 204 175 215 276 247 175 200 218 202 223 249 261 262 259 257 255 250 247 247 247 243 243 248 248 246 242 236 234 233 232 229 227 225 224 223 223 222 222 223 223 223 223 222 223 223 222 222 222 223 225 225 225 226 226 227 227 227 230 233 238 242 245 248 248 248 247 246 245 244 247 248 250 252 249 246 251 253 254 251 243 243 251 256 261 262
129 124 114 94 10 27 36 7 66 203 247 278 263 170 167 252 245 165 217 235 200 207 219 243 254 257 259 257 251 246 247 250 251 252 255 255 250 242 233 231 231 229 226 224 223 223 222 223 222 222 223 223 223 222 222 222 222 222 223 223 224 224 224 224 223 223 225 225 226 229 233 237 241 244 246 246 247 246 244 243 240 242 243 245 253 249 239 246 256 252 244 235 238 246 250 258 260
143 136 141 150 305 28 207 251 185 229 249 230 191 154 187 243 251 225 258 268 242 223 213 230 246 254 257 258 255 252 250 250 250 251 254 255 248 236 229 229 228 224 222 222 222 221 221 222 221 221 222 222 222 222 222 222 222 222 223 223 224 225 224 225 225 225 227 228 229 231 234 236 237 239 241 243 249 247 243 242 237 235 235 236 248 249 242 246 247 239 229 223 232 244 249 253 246
169 165 169 173 169 181 205 217 223 244 253 232 176 170 244 271 272 232 234 245 242 235 231 236 242 247 249 258 271 280 279 260 244 244 247 244 241 238 232 229 228 227 225 223 222 220 219 219 219 220 222 222 221 221 221 221 222 223 224 224 225 224 224 226 227 228 230 231 233 234 237 240 239 241 243 247 253 250 245 243 235 232 235 235 239 247 253 249 236 232 234 229 231 230 215 192 173
182 160 147 179 188 183 195 199 210 228 245 274 234 191 208 224 257 233 226 251 267 267 263 256 254 252 252 273 283 281 278 265 242 238 244 243 239 236 230 225 224 226 226 224 222 221 219 218 218 219 220 220 220 220 220 221 222 223 224 225 225 225 225 227 228 230 232 233 234 236 238 241 242 245 248 251 253 251 249 243 229 228 241 242 236 238 248 243 230 230 228 215 206 186 165 158 161
210 123 129 209 202 146 128 185 182 166 207 255 221 223 220 206 276 274 248 267 278 275 278 272 266 262 257 266 265 261 264 260 238 233 246 256 249 233 222 212 208 207 210 215 218 220 220 219 219 219 220 221 219 220 221 222 223 223 224 224 225 225 226 227 229 230 232 234 235 237 239 242 244 246 248 250 251 249 247 237 224 224 235 239 235 232 234 229 219 208 188 173 167 161 157 158 162
157 149 184 212 174 122 110 230 34 87 210 248 206 247 285 311 285 273 247 263 281 274 269 260 258 260 252 251 248 248 254 251 234 226 233 252 256 228 212 202 196 194 196 205 210 216 220 221 221 219 220 220 219 220 221 222 222 222 223 224 224 226 226 227 229 230 232 234 236 238 240 242 243 243 245 247 245 244 237 225 222 227 227 226 221 211 204 195 183 171 164 165 162 159 160 158 161
135 190 196 144 92 117 116 207 330 89 223 269 250 239 268 275 266 274 242 250 270 266 253 250 262 263 248 248 243 240 246 245 243 239 240 250 244 215 199 187 186 188 194 204 206 210 214 217 221 221 220 219 219 219 219 220 221 220 222 222 223 225 227 228 230 232 233 233 233 235 236 238 239 240 241 240 238 235 223 209 213 217 206 196 184 170 163 160 158 156 160 164 164 168 171 165 172
146 190 183 135 164 209 140 172 196 180 229 275 303 280 258 217 231 300 273 239 249 258 257 254 259 250 241 248 247 242 244 242 243 242 239 230 199 191 181 171 177 181 187 200 203 206 207 207 213 218 222 222 220 219 218 218 219 220 222 222 223 225 226 229 230 230 231 230 231 232 232 233 235 233 232 231 228 219 202 188 189 188 175 165 162 159 158 159 160 164 168 166 164 169 176 178 190
83 141 173 165 169 184 173 169 171 172 214 249 297 317 262 219 201 196 230 240 242 252 263 258 246 239 235 243 246 245 241 229 228 230 227 205 173 175 171 166 169 172 179 188 193 199 202 204 205 206 211 215 216 216 216 216 217 218 220 221 223 223 223 225 225 226 226 226 227 228 228 228 227 222 221 219 207 192 179 172 175 174 165 159 161 166 174 181 180 178 177 174 171 176 187 192 181
148 155 178 189 145 145 169 174 152 149 182 210 266 282 259 239 190 186 208 232 242 245 251 252 252 251 246 251 264 270 255 233 225 221 212 188 166 167 163 161 161 163 168 174 180 188 193 199 202 202 201 200 201 203 206 209 210 211 214 215 215 217 218 219 220 221 222 222 222 222 220 217 212 206 201 194 183 174 170 175 178 175 171 169 174 182 188 194 191 178 172 174 178 182 181 170 154
176 177 185 180 149 122 161 221 211 115 166 185 184 268 268 248 194 195 197 212 235 243 235 240 259 264 263 278 286 264 248 238 224 208 196 176 165 167 160 157 159 159 162 165 171 177 182 189 194 196 197 195 194 193 194 199 200 201 205 207 208 209 210 212 213 213 213 214 213 210 206 202 196 190 184 179 177 177 178 180 177 176 176 179 188 195 196 196 186 172 167 169 170 163 155 149 144